Weather History for Findlay, OH

Change the Weather History Date:

Wednesday, December 19, 2012

  Actual Average Record
Temperature  
Mean Temperature 39 °F -  
Max Temperature 42 °F 35 °F 58 °F (1957)
Min Temperature 36 °F 23 °F -4 °F (1963)
Degree Days  
Heating Degree Days 26    
Moisture  
Dew Point 34 °F    
Average Humidity 83    
Maximum Humidity 89    
Minimum Humidity 73    
Precipitation  
Precipitation 0.00 in - - ()
Sea Level Pressure  
Sea Level Pressure 29.98 in    
Wind  
Wind Speed 6 mph (WNW)    
Max Wind Speed 8 mph    
Max Gust Speed -    
Visibility 8 miles    
Events      
Averages and records for this station are not official NWS values.
T = Trace of Precipitation, MM = Missing Value Source: NWS Daily Summary

Daily Weather History Graph

Daily Weather History Graph

Search for Another Location

Airport:

Trip Planner

Search our weather history database for the weather conditions in past years. The results will help you decide how hot, cold, wet, or windy it might be!

Date:

Astronomy

Dec. 19, 2012 Rise Set
Actual Time 7:55 AM EST 5:08 PM EST
Civil Twilight 7:24 AM EST 5:39 PM EST
Nautical Twilight 6:49 AM EST 6:14 PM EST
Astronomical Twilight 6:16 AM EST 6:48 PM EST
Moon 12:00 PM EST (12/19) No Moon Set
Length of Visible Light 10h 15m
Length of Day
9h 13m
Waxing Crescent, 45% of the Moon is Illuminated
Dec 19
Waxing Crescent
Dec 20
First Quarter
Dec 28
Full
Jan 4
Last Quarter
Jan 11
New

Hourly Weather History & Observations

Time (EST) Temp. Windchill Dew Point Humidity Pressure Visibility Wind Dir Wind Speed Gust Speed Precip Events Conditions
12:53 AM 41.0 °F 35.8 °F 35.1 °F 79% 29.71 in 10.0 mi SW 8.1 mph - N/A   Overcast
1:53 AM 39.0 °F 34.0 °F 35.1 °F 86% 29.73 in 10.0 mi West 6.9 mph - N/A   Mostly Cloudy
2:32 AM 39.2 °F 35.0 °F 35.6 °F 87% 29.76 in 9.0 mi West 5.8 mph - N/A   Overcast
2:53 AM 39.0 °F 34.8 °F 36.0 °F 89% 29.77 in 9.0 mi West 5.8 mph - N/A   Overcast
3:53 AM 39.0 °F 34.0 °F 36.0 °F 89% 29.81 in 8.0 mi West 6.9 mph - N/A   Overcast
4:53 AM 39.0 °F 33.4 °F 36.0 °F 89% 29.83 in 7.0 mi West 8.1 mph - N/A   Overcast
5:53 AM 39.0 °F 33.4 °F 36.0 °F 89% 29.87 in 6.0 mi WNW 8.1 mph - N/A   Overcast
6:53 AM 39.0 °F 34.0 °F 36.0 °F 89% 29.91 in 6.0 mi West 6.9 mph - N/A   Overcast
7:37 AM 39.2 °F 34.2 °F 35.6 °F 87% 29.93 in 5.0 mi West 6.9 mph - N/A   Overcast
7:53 AM 39.0 °F 34.8 °F 36.0 °F 89% 29.95 in 5.0 mi West 5.8 mph - N/A   Overcast
8:53 AM 39.9 °F 35.8 °F 37.0 °F 89% 29.97 in 4.0 mi Variable 5.8 mph - N/A   Overcast
9:53 AM 39.9 °F 34.5 °F 36.0 °F 86% 30.01 in 5.0 mi NW 8.1 mph - N/A   Overcast
10:53 AM 39.9 °F 35.8 °F 36.0 °F 86% 30.04 in 6.0 mi NW 5.8 mph - N/A   Overcast
11:11 AM 41.0 °F 37.1 °F 35.6 °F 81% 30.02 in 7.0 mi NNW 5.8 mph - N/A   Overcast
11:53 AM 39.9 °F 35.1 °F 34.0 °F 79% 30.04 in 9.0 mi NW 6.9 mph - N/A   Overcast
12:53 PM 41.0 °F 37.1 °F 34.0 °F 76% 30.04 in 9.0 mi WNW 5.8 mph - N/A   Overcast
1:53 PM 42.1 °F - 34.0 °F 73% 30.04 in 9.0 mi Calm Calm - N/A   Overcast
2:53 PM 41.0 °F - 33.1 °F 73% 30.05 in 10.0 mi Calm Calm - N/A   Overcast
3:53 PM 41.0 °F 38.0 °F 33.1 °F 73% 30.08 in 10.0 mi WSW 4.6 mph - N/A   Overcast
4:53 PM 41.0 °F - 33.1 °F 73% 30.09 in 10.0 mi Calm Calm - N/A   Overcast
5:29 PM 39.2 °F - 33.8 °F 81% 30.09 in 10.0 mi Calm Calm - N/A   Scattered Clouds
5:53 PM 39.0 °F 36.8 °F 32.0 °F 76% 30.09 in 10.0 mi East 3.5 mph - N/A   Clear
6:53 PM 36.0 °F 32.1 °F 32.0 °F 86% 30.10 in 8.0 mi ESE 4.6 mph - N/A   Clear
7:53 PM 36.0 °F 30.3 °F 32.0 °F 86% 30.09 in 7.0 mi East 6.9 mph - N/A   Clear
8:53 PM 37.0 °F 32.4 °F 32.0 °F 82% 30.09 in 8.0 mi East 5.8 mph - N/A   Overcast
9:53 PM 37.0 °F 31.0 °F 32.0 °F 82% 30.09 in 8.0 mi East 8.1 mph - N/A   Partly Cloudy
10:53 PM 37.0 °F 31.0 °F 33.1 °F 86% 30.07 in 7.0 mi East 8.1 mph - N/A   Overcast
11:53 PM 37.9 °F 32.1 °F 33.1 °F 83% 30.05 in 7.0 mi East 8.1 mph - N/A   Overcast